Regional Weather Roundup
Issued by NWS

Home | Current Version | Previous Version | Text Only | Print | Product List | Glossary Off
Versions: 1 2 3 4 5 6 7 8 9 10 11 12 13 14 15 16 17 18 19 20 21 22 23 24 25 26 27 28 29 30 31 32 33 34 35 36 37 38 39 40 41 42 43 44 45 46 47 48 49 50

000
ASUS43 KOAX 251010
RWRNE

WEATHER ROUNDUP FOR NEBRASKA
NATIONAL WEATHER SERVICE OMAHA NE
400 AM CST SUN FEB 25 2018

NOTES: SATELLITE DATA IS BEING USED TO AUGMENT CLOUD COVER ABOVE
       12000 FEET.
       "FAIR" INDICATES FEW OR NO CLOUDS BELOW 12,000 FEET WITH NO
       SIGNIFICANT WEATHER AND/OR OBSTRUCTIONS TO VISIBILITY.


NEZ001>004-019>022-054>056-251100-
NEBRASKA PANHANDLE

CITY           SKY/WX    TMP DP  RH WIND       PRES   REMARKS
SCOTTSBLUFF    CLOUDY    22  13  68 NW6       29.80F WCI  14
ALLIANCE       CLOUDY    20  12  71 W8        29.77F WCI  10
CHADRON        MOCLDY     4   0  83 W6        29.79F WCI  -7
GORDON         FAIR      17   7  64 W8        29.76S WCI   7
KIMBALL        PTCLDY    23   9  54 W18       29.79F WCI   8
SIDNEY         CLOUDY    26   8  46 W16       29.81F WCI  14
$$

NEZ057>060-069>072-079>082-251100-
SOUTHWEST NEBRASKA

CITY           SKY/WX    TMP DP  RH WIND       PRES   REMARKS
NORTH PLATTE   MOCLDY     7   1  76 CALM      29.84F
IMPERIAL       CLOUDY    27  17  66 SW8       29.86F WCI  19
LEXINGTON      CLEAR     16  12  84 CALM      29.87S
MCCOOK         PTCLDY    23  15  71 W7        29.89F WCI  15
OGALLALA       MOCLDY    21  13  72 CALM      29.82F
$$

NEZ005>010-023>029-035>040-094-251100-
NORTH CENTRAL NEBRASKA

CITY           SKY/WX    TMP DP  RH WIND       PRES   REMARKS
VALENTINE      PTCLDY    18   7  62 W13       29.77F WCI   5
AINSWORTH      PTCLDY    18  10  70 W13       29.77S WCI   5
BROKEN BOW     CLEAR     20   8  60 W13       29.81F WCI   7
O`NEILL        CLEAR     19  10  68 W14       29.78S WCI   6
ORD            CLEAR     17   9  70 N5        29.83S WCI  10
THEDFORD       PTCLDY    23  13  66 W14       29.79F WCI  10
$$

NEZ041-046>049-061>064-073>077-083>087-251100-
SOUTH CENTRAL NEBRASKA

CITY           SKY/WX    TMP DP  RH WIND       PRES   REMARKS
GRAND ISLAND   CLEAR     21  14  74 SW13      29.87S WCI   9
AURORA         CLEAR     20  14  76 SW9       29.88R WCI   9
HASTINGS       CLEAR     20  13  74 SW8       29.88F WCI  10
HEBRON         CLEAR     24  18  77 SW9       29.94S WCI  14
HOLDREGE       CLEAR     23  15  69 SW7       29.88S WCI  15
KEARNEY        CLEAR     23  14  68 W8        29.88S WCI  14
YORK           CLEAR     18  16  93 SW12      29.88S WCI   5
$$

NEZ011>018-030>034-042>045-251100-
NORTHEAST NEBRASKA

CITY           SKY/WX    TMP DP  RH WIND       PRES   REMARKS
NORFOLK        CLEAR     19  11  70 W9        29.80S WCI   8
ALBION         CLEAR     18  11  73 NW7       29.82F WCI   9
BLAIR          CLEAR     22  15  75 SW7       29.85R WCI  13
COLUMBUS       CLEAR     15  10  80 SW6       29.86S WCI   6
FREMONT        CLEAR     22  15  72 SW6       29.86S WCI  15
TEKAMAH        CLEAR     17  10  74 SW9       29.84F WCI   6
WAYNE          PTCLDY    21  11  65 SW12G17   29.79R WCI   9
$$

NEZ050>053-065>068-078-088>093-251100-
SOUTHEAST NEBRASKA

CITY           SKY/WX    TMP DP  RH WIND       PRES   REMARKS
LINCOLN        CLEAR     21  15  78 SW3       29.91R
OMAHA EPPLEY   CLEAR     23  15  71 SW3       29.87S
BEATRICE       CLEAR     25  19  78 SW10      29.93R WCI  14
FALLS CITY     CLEAR     25  19  78 SW5       29.93S WCI  19
NEBRASKA CITY  CLEAR     23  21  91 SW8       29.90R WCI  14
PLATTSMOUTH    CLEAR     23  18  80 SW9       29.88R WCI  13
$$

NEZ044-045-051>053-067-251100-
OMAHA AREA

CITY           SKY/WX    TMP DP  RH WIND       PRES   REMARKS
OMAHA EPPLEY   CLEAR     23  15  71 SW3       29.87S
BLAIR          CLEAR     22  15  75 SW7       29.85R WCI  13
FREMONT        CLEAR     22  15  72 SW6       29.86S WCI  15
MILLARD        CLEAR     26  17  69 CALM      29.88R
OFFUTT AFB     CLEAR     22  15  75 W5        29.87S WCI  16
PLATTSMOUTH    CLEAR     23  18  80 SW9       29.88R WCI  13
WAHOO          FAIR      22  15  72 SW10      29.87S WCI  12
$$




USA.gov is the U.S. government's official web portal to all federal, state and local government web resources and services.